User: anonymous   Login
Location: Gisborne
(38.6530°S, 178.0040°E)
Time: 14:50:03
(UTC+13:00)
Language:

USA 238 - Orbit

View from above orbital plane
View from above orbital plane
View from above satellite
View from above satellite

Ground track
Ground track

The orbit data is extracted from the following two-line orbital elements,

1 38758U 12048A   19084.08676335 0.00000000  00000-0  00000-0 0    09
2 38758  63.4414  97.7240 0084013   2.1741 357.8259 13.40781960    03
Epoch (UTC): 25 March 2019 02:04:56
Eccentricity: 0.0084013
inclination: 63.4414°
perigee height: 1043 km
apogee height: 1169 km
right ascension of ascending node: 97.7240°
argument of perigee: 2.1741°
revolutions per day: 13.40781960
mean anomaly at epoch: 357.8259°
orbit number at epoch: 0

The dashed part of the orbit path shows where the satellite is in the earth's shadow,  

DLR